Regional Weather Roundup
Issued by NWS Bismarck, ND

Home | Current Version | Previous Version | Text Only | Print | Product List | Glossary On
Versions: 1 2 3 4 5 6 7 8 9 10 11 12 13 14 15 16 17 18 19 20 21 22 23 24 25 26 27 28 29 30 31 32 33 34 35 36 37 38 39 40 41 42 43 44 45 46 47 48 49 50
000
ASUS43 KBIS 091110
RWRBIS

NWR BROADCAST TEXT
NATIONAL WEATHER SERVICE BISMARCK ND
500 AM CST FRI DEC 09 2016

NOTE: "FAIR" INDICATES FEW OR NO CLOUDS BELOW 12,000 FEET WITH NO
SIGNIFICANT WEATHER AND/OR OBSTRUCTIONS TO VISIBILITY.


CITY           SKY/WX    TMP DP  RH WIND       PRES   REMARKS
WILLISTON      CLOUDY   -17 -22  78 CALM      30.56S
MINOT          CLOUDY    -9 -14  78 W9        30.54S WCI -26
MINOT AFB      CLOUDY   -12 -17  78 NW9       30.54S WCI -31
BISMARCK       CLOUDY   -14 -17  87 CALM      30.56S
DICKINSON      CLOUDY   -20 -26  74 CALM      30.42F
GARRISON         N/A    -15 -19  82 NW9       30.52F WCI -34
HETTINGER ARPT CLOUDY   -18 -23  77 W3        30.43S
JAMESTOWN      CLEAR     -7 -11  83 NW9       30.53S WCI -24
CARRINGTON     CLOUDY    -8 -13  77 W10       30.55S WCI -26
HAZEN          CLOUDY    -8 -15  71 SW6       30.56F WCI -21
RUGBY            N/A    -17 -22  76 W8        30.55R WCI -34
STANLEY        FAIR     -18 -22  83 W7        30.51S WCI -35
TIOGA          FAIR     -15 -18  84 NW3       30.51F
WATFORD CITY   FAIR     -22 -27  76 CALM      30.53F
$$

CITY           SKY/WX    TMP DP  RH WIND       PRES   REMARKS
GRAND FORKS    CLOUDY     7  -1  70 NW13      30.56F WCI  -9
GRAND FORKS AF CLOUDY     3  -5  68 NW8       30.56F WCI -11
DEVILS LAKE    CLEAR     -7 -11  83 NW9       30.54S WCI -24
FARGO          CLOUDY     8   1  73 W7        30.57F WCI  -3
CANDO          FAIR      -9 -13  84 W7        30.56S WCI -24
CAVALIER         N/A      5   0  78 N8        30.57S WCI  -8
GRAFTON        FLURRIES   7   0  72 NW10      30.59S WCI  -8
GWINNER        FAIR      -2  -8  78 W10       30.55F WCI -19
LANGDON        CLOUDY    -6 -11  77 NW9       30.50S WCI -22
ROLLA          FAIR     -13 -18  77 S3        30.49F
WALHALLA         N/A      1   1 100 NW7       30.57F WCI -11
$$

CITY           SKY/WX    TMP DP  RH WIND       PRES   REMARKS
ABERDEEN       CLOUDY    -8 -13  78 W7        30.59S WCI -23
MOBRIDGE       CLOUDY    -3  -9  75 N6        30.51F WCI -15
BUFFALO          N/A     -8 -12  83 E6        30.27F WCI -21
RAPID CITY     CLOUDY     0  -5  79 NE12      30.30F WCI -17
GLASGOW        CLOUDY    -3  -8  79 E7        30.49S WCI -16
SIDNEY         CLOUDY   -17 -22  78 N3        30.55F
WOLF POINT     CLOUDY   -13 -21  67 E3        30.56S
GLENDIVE       CLOUDY   -13 -18  78 N5        30.47F WCI -25
MILES CITY     CLOUDY    -6 -11  79 N13       30.42R WCI -25
BAKER          CLOUDY    -9 -13  83 E7        30.38F WCI -24
$$

CITY           SKY/WX    TMP DP  RH WIND       PRES   REMARKS
BILLINGS       LGT SNOW   2  -2  83 NE6       30.27S FOG     WCI  -9
GREAT FALLS    CLOUDY    -3  -8  79 N3        30.30R
REGINA         CLEAR    -17 -20  83 NW5       30.57R WCI -29
ESTEVAN        CLEAR    -22 -26  83 W9        30.54S WCI -42
$$




USA.gov is the U.S. government's official web portal to all federal, state and local government web resources and services.